WB8FCY Weather Reports


Display with metric or nautical units.
time (UTC)temp
F
wind
direction
speed
MPH
gust
MPH
rain 1hr
in
rain 24hr
in
rain mn
in
humidity
%
barometer
mb
20260906181830 74 109 5.0 10.0 0.00 0.00 0.00 10 1019.7
20260906180350 74 127 4.0 8.0 0.00 0.00 0.00 8 1019.6
20260906174828 74 104 1.0 5.0 0.00 0.00 0.00 3 1019.7
20260906173328 74 109 5.0 7.0 0.00 0.00 0.00 7 1019.7
20260906171826 74 134 3.0 7.0 0.00 0.00 0.00 100 1019.7
20260906170323 74 100 4.0 6.0 0.00 0.00 0.00 100 1019.8
20260906164826 73 89 3.0 4.0 0.00 0.00 0.00 100 1019.9
20260906163344 73 91 3.0 5.0 0.00 0.00 0.00 100 1019.9
20260906161824 72 152 3.0 5.0 0.00 0.00 0.00 100 1020.0
20260906160319 72 134 3.0 8.0 0.00 0.00 0.00 100 1020.0
20260906154818 72 107 2.0 5.0 0.00 0.00 0.00 100 1020.0
20260906153319 71 162 2.0 7.0 0.00 0.00 0.00 100 1020.0
20260906151815 69 109 0.0 4.0 0.00 0.00 0.00 100 1020.0
20260906150316 66 150 2.0 6.0 0.00 0.00 0.00 100 1020.2
20260906144832 65 135 1.0 2.0 0.00 0.00 0.00 100 1020.1
20260906143335 62 238 1.0 3.0 0.00 0.00 0.00 100 1020.2
20260906141852 62 5 0.0 3.0 0.00 0.00 0.00 100 1020.3
20260906140328 61 57 0.0 3.0 0.00 0.00 0.00 100 1020.4
20260906134830 60 290 0.0 0.0 0.00 0.00 0.00 100 1020.5
20260906133329 59 290 0.0 0.0 0.00 0.00 0.00 100 1020.4
20260906131830 58 288 0.0 0.0 0.00 0.00 0.00 100 1020.5
20260906130328 56 61 0.0 0.0 0.00 0.00 0.00 100 1020.2
20260906124830 55 61 0.0 0.0 0.00 0.01 0.00 100 1020.1
20260906123325 53 64 0.0 0.0 0.00 0.01 0.00 100 1020.1
20260906121844 53 64 0.0 0.0 0.00 0.01 0.00 100 1020.1
20260906120323 52 64 0.0 0.0 0.00 0.01 0.00 100 1019.9
20260906114819 51 64 0.0 0.0 0.00 0.01 0.00 100 1019.8
20260906113321 51 64 0.0 0.0 0.00 0.01 0.00 100 1019.6
20260906111819 51 64 0.0 0.0 0.00 0.01 0.00 100 1019.7